#timestamp,LO_Frequency,Hit,StdDev 
1627603215.2,286047001.9,N
1627603235.0,286047002.2,N
1627603235.9,286047002.2,N
1627603255.8,286047001.9,N
1627603275.6,286047002.1,N
1627603295.4,286047002.6,Y
1627603315.3,286046999.9,P
1627603335.1,286047000.3,N
1627603355.8,286047000.1,N
1627603375.7,286047002.8,Y
1627603395.5,286047000.9,P
1627603415.4,286047001.0,P
1627603435.2,286047000.3,N
1627603455.1,286046999.9,N
1627603456.0,286046999.9,N
1627603475.8,286046999.7,N
1627603495.6,286046999.7,N
1627603515.5,286047002.2,Y
1627603535.3,286047000.1,P
1627603555.1,286047000.4,P
1627603575.9,286047002.7,P
1627603595.7,286046999.9,N
1627603615.6,286047002.7,N
1627603635.4,286047001.9,N
1627603655.2,286047002.7,N
1627603675.1,286047002.5,N
1627603676.0,286047002.5,N
1627603695.8,286047001.7,N
1627603715.7,286047001.8,N
1627603735.5,286047001.9,N
1627603755.3,286047000.1,N
1627603775.2,286046999.8,N
1627603795.0,286046999.9,N
1627603795.9,286046999.9,N
1627603815.7,286047002.3,N
1627603835.6,286047000.0,N
1627603855.4,286047000.6,N
1627603875.3,286047000.7,N
1627603895.1,286047002.7,N
1627603896.0,286047002.7,N
1627603915.8,286047002.6,N
1627603935.7,286047002.6,N
1627603955.5,286047002.6,N
1627603975.3,286047002.4,N
1627603995.2,286047002.4,N
1627604015.0,286046999.7,N
1627604015.9,286046999.7,N
1627604035.8,286047001.8,N
1627604055.6,286047002.4,N
1627604075.4,286047002.6,N
1627604095.3,286047001.7,N
1627604115.1,286047001.9,N
1627604135.9,286047000.0,N
1627604155.7,286047000.4,N
1627604175.5,286047000.8,N
1627604195.4,286047000.2,N
1627604215.2,286046999.7,N
1627604235.0,286047002.7,N
1627604235.9,286047002.7,N
1627604255.8,286047002.0,N
1627604275.6,286047002.3,N
1627604295.5,286047002.7,N
1627604315.3,286047002.7,N
1627604335.1,286047002.7,N
1627604355.9,286046999.7,N
1627604375.7,286047002.3,N
1627604395.5,286047002.2,N
1627604415.4,286047001.5,N
1627604435.2,286047002.3,N
1627604455.1,286047002.0,N
1627604456.0,286047002.0,N
1627604475.8,286047003.9,Y
1627604495.6,286047000.1,P
1627604515.5,286047002.6,P
1627604535.3,286047000.1,N
1627604555.1,286046999.7,N
1627604575.9,286047000.1,N
1627604595.7,286047001.6,N
1627604615.6,286047002.7,N
1627604635.4,286047002.8,N
1627604655.2,286047002.3,N
1627604675.1,286046999.7,N
1627604676.0,286046999.7,N
1627604695.8,286047002.3,N
1627604715.7,286046999.9,N
1627604735.5,286046999.7,N
1627604755.3,286047002.4,N
1627604775.2,286047002.8,N
1627604795.9,286047000.2,N
1627604815.7,286047002.3,N
1627604835.6,286047002.0,N
1627604855.4,286047003.5,N
1627604875.3,286047011.9,Y
1627604895.1,286047003.7,P
1627604896.0,286047003.7,P
1627604915.8,286047003.6,P
1627604935.7,286047003.1,Y
1627604955.5,286047002.6,P
1627604975.3,286047002.0,P
1627604995.2,286047002.5,P
1627605015.0,286047002.3,Y
1627605015.9,286047002.3,P
1627605035.8,286047001.2,P
1627605055.6,286046998.2,P
1627605075.4,286046999.0,N
1627605095.3,286047001.2,N
1627605115.1,286046998.2,N
1627605135.9,286046996.5,N
1627605155.7,286046996.5,N
1627605175.5,286046997.0,N
1627605195.4,286046997.3,N
1627605215.2,286046997.6,N
1627605235.0,286046997.5,N
1627605235.9,286046997.5,N
1627605255.8,286046996.2,N
1627605275.6,286046995.6,N
1627605295.5,286046995.3,N
1627605315.3,286046995.2,N
1627605365.2,286046997.4,E
1627605375.1,286046998.4,N
1627605376.0,286046998.4,P
1627605395.8,286047000.7,P
1627605415.7,286046998.6,N
1627605435.5,286046998.2,N
1627605455.3,286047001.1,N
1627605475.2,286047000.7,N
1627605495.0,286046998.8,N
1627605495.9,286046998.8,N
1627605515.8,286046996.7,Y
1627605535.6,286046999.0,P
1627605555.4,286046998.5,P
1627605575.3,286046999.4,N
1627605595.1,286046997.2,Y
1627605615.8,286046997.1,P
1627605635.7,286046994.9,P
1627605655.5,286046996.1,N
1627605675.4,286046995.3,Y
1627605695.2,286046998.4,P
1627605715.0,286047001.2,N
1627605715.9,286047001.2,N
1627605735.8,286047001.1,N
1627605755.6,286046999.3,N
1627605775.4,286046998.9,N
1627605795.3,286046999.6,N
1627605815.1,286046999.2,N
1627605835.9,286046996.6,N
1627605855.7,286046999.2,N
1627605875.5,286046999.1,N
1627605895.4,286046998.9,N
1627605915.2,286046999.1,N
1627605935.1,286046998.9,N
1627605936.0,286046998.9,N
1627605955.8,286046998.4,N
1627605975.6,286047000.6,N
1627605995.5,286047000.5,N
1627606015.3,286046999.9,N
1627606035.1,286046999.9,N
1627606055.9,286046998.8,N
1627606075.7,286046999.4,N
1627606095.6,286046998.3,N
1627606115.4,286047000.6,N
1627606135.2,286046998.1,N
1627606155.1,286046998.4,N
1627606156.0,286046998.4,N
1627606175.8,286046998.8,N
1627606195.7,286046998.8,N
1627606215.5,286046998.9,N
1627606235.3,286046998.4,N
1627606255.2,286046998.1,N
1627606275.9,286047000.2,N
1627606295.7,286047000.9,N
1627606315.6,286047001.0,N
1627606335.4,286046999.1,N
1627606355.3,286047000.5,N
1627606375.1,286047001.0,N
1627606376.0,286047001.0,N
1627606395.8,286047000.5,N
1627606415.7,286046998.3,N
1627606435.5,286046998.3,N
1627606455.3,286046998.8,N
1627606475.2,286046998.3,N
1627606495.0,286046998.5,N
1627606495.9,286046998.5,N
1627606515.8,286047000.7,N
1627606535.6,286046998.9,N
1627606555.4,286046998.2,N
1627606575.3,286047000.9,N
1627606595.1,286047000.5,N
1627606615.9,286047001.1,N
1627606635.7,286047000.6,N
1627606655.5,286047000.9,N
1627606675.4,286047000.0,N
1627606695.2,286047002.7,N
1627606715.0,286046999.9,N
1627606715.9,286046999.9,N
1627606735.8,286047002.5,N
1627606755.6,286047002.5,N
1627606775.5,286047001.5,N
1627606795.3,286047002.2,N
